Weather History for Alton, IL

Change the Weather History Date:

Tuesday, November 5, 2013

  Actual Average Record
Temperature  
Mean Temperature 54 °F -  
Max Temperature 59 °F 56 °F 82 °F (1999)
Min Temperature 50 °F 40 °F 31 °F (2010)
Degree Days  
Heating Degree Days 10    
Growing Degree Days 4 (Base 50)    
Moisture  
Dew Point 49 °F    
Average Humidity 82    
Maximum Humidity 100    
Minimum Humidity 66    
Precipitation  
Precipitation 0.04 in - - ()
Sea Level Pressure  
Sea Level Pressure 30.18 in    
Wind  
Wind Speed 8 mph (SSE)    
Max Wind Speed 16 mph    
Max Gust Speed 21 mph    
Visibility 9 miles    
Events Rain    
Averages and records for this station are not official NWS values.
T = Trace of Precipitation, MM = Missing Value Source: NWS Daily Summary

Daily Weather History Graph

Daily Weather History Graph

Search for Another Location

Airport:

Trip Planner

Search our weather history database for the weather conditions in past years. The results will help you decide how hot, cold, wet, or windy it might be!

Date:

Astronomy

Nov. 05, 2013 Rise Set
Actual Time 6:31 AM CST 4:54 PM CST
Civil Twilight 6:04 AM CST 5:22 PM CST
Nautical Twilight 5:32 AM CST 5:54 PM CST
Astronomical Twilight 5:01 AM CST 6:25 PM CST
Moon 8:46 AM CST (11/5) 6:57 PM CST (11/5)
Length of Visible Light 11h 18m
Length of Day
10h 23m
Waxing Crescent, 7% of the Moon is Illuminated
Nov 5
Waxing Crescent
Nov 9
First Quarter
Nov 17
Full
Nov 25
Last Quarter
Dec 2
New

Hourly Weather History & Observations

Time (CST) Temp. Dew Point Humidity Pressure Visibility Wind Dir Wind Speed Gust Speed Precip Events Conditions
12:15 AM 54.5 °F 43.3 °F 66% 30.24 in 10.0 mi SSE 6.9 mph - N/A   Unknown
12:35 AM 54.1 °F 43.7 °F 68% 30.24 in 10.0 mi SSE 6.9 mph - N/A   Unknown
12:55 AM 54.0 °F 43.9 °F 69% 30.25 in 10.0 mi SSE 6.9 mph - N/A   Unknown
1:15 AM 53.8 °F 44.4 °F 71% 30.25 in 10.0 mi SSE 6.9 mph - N/A   Unknown
1:35 AM 53.8 °F 44.8 °F 72% 30.26 in 10.0 mi SSE 8.1 mph - N/A   Unknown
1:55 AM 53.6 °F 45.5 °F 74% 30.25 in 10.0 mi SSE 5.8 mph - N/A   Unknown
2:15 AM 53.6 °F 46.4 °F 77% 30.25 in 10.0 mi SSE 5.8 mph - N/A   Unknown
2:35 AM 53.6 °F 46.8 °F 78% 30.24 in 10.0 mi SSE 8.1 mph - N/A   Unknown
2:55 AM 53.6 °F 47.3 °F 79% 30.24 in 10.0 mi SSE 6.9 mph - N/A   Unknown
3:15 AM 53.4 °F 47.7 °F 81% 30.24 in 10.0 mi SE 8.1 mph - N/A   Unknown
3:35 AM 52.2 °F 49.1 °F 89% 30.23 in 7.0 mi SSE 6.9 mph - N/A   Drizzle
3:55 AM 51.6 °F 49.5 °F 92% 30.23 in 10.0 mi SE 5.8 mph - N/A Rain Rain
4:15 AM 51.3 °F 50.0 °F 95% 30.24 in 10.0 mi SE 6.9 mph - N/A   Drizzle
4:35 AM 51.3 °F 50.0 °F 95% 30.26 in 5.0 mi SSE 6.9 mph - 0.01 in   Heavy Drizzle
4:55 AM 51.3 °F 50.0 °F 95% 30.25 in 5.0 mi SSE 5.8 mph - 0.02 in Rain Heavy Rain
5:15 AM 51.3 °F 50.2 °F 96% 30.25 in 5.0 mi SSE 4.6 mph - N/A   Drizzle
5:35 AM 51.4 °F 50.4 °F 96% 30.26 in 7.0 mi South 6.9 mph - N/A   Light Drizzle
5:55 AM 51.6 °F 50.4 °F 95% 30.26 in 7.0 mi SSE 5.8 mph - 0.01 in   Drizzle
6:50 AM 51.8 °F 50.0 °F 94% 30.26 in 5.0 mi SE 6.9 mph - N/A Rain Light Rain
7:50 AM 50.0 °F 50.0 °F 100% 30.28 in 2.5 mi SSE 6.9 mph - N/A Rain Light Rain
8:50 AM 51.8 °F 50.0 °F 94% 30.28 in 3.0 mi SSE 8.1 mph - N/A Rain Light Rain
9:50 AM 51.8 °F 50.0 °F 94% 30.27 in 5.0 mi South 9.2 mph - N/A Rain Light Rain
10:50 AM 53.6 °F 51.8 °F 94% 30.26 in 7.0 mi South 9.2 mph - N/A   Overcast
11:50 AM 55.4 °F 51.8 °F 88% 30.12 in 10.0 mi South 13.8 mph - N/A   Overcast
12:50 PM 57.2 °F 50.0 °F 77% 30.19 in 10.0 mi South 11.5 mph - N/A   Overcast
1:50 PM 59.0 °F 51.8 °F 77% 30.15 in 10.0 mi South 13.8 mph - N/A   Mostly Cloudy
2:50 PM 59.0 °F 51.8 °F 77% 30.13 in 10.0 mi South 11.5 mph - N/A   Mostly Cloudy
3:50 PM 59.0 °F 50.0 °F 72% 30.11 in 10.0 mi South 11.5 mph - N/A   Overcast
4:50 PM 57.2 °F 51.8 °F 82% 30.10 in 8.0 mi South 13.8 mph - N/A Rain Light Rain
9:15 PM 57.2 °F 48.0 °F 71% 30.05 in 10.0 mi SE 8.1 mph - N/A   Unknown
9:35 PM 57.2 °F 48.2 °F 72% 30.06 in 10.0 mi SSE 9.2 mph - N/A   Unknown
9:55 PM 57.2 °F 48.2 °F 72% 30.05 in 10.0 mi SSE 8.1 mph - N/A   Unknown
10:15 PM 57.4 °F 48.0 °F 71% 30.05 in 10.0 mi South 11.5 mph - N/A   Unknown
10:35 PM 57.2 °F 48.7 °F 73% 30.04 in 10.0 mi SSE 10.4 mph - N/A   Unknown
10:55 PM 57.2 °F 49.6 °F 76% 30.04 in 10.0 mi South 15.0 mph - N/A   Light Drizzle
11:15 PM 57.4 °F 50.0 °F 76% 30.04 in 10.0 mi South 12.7 mph - N/A Rain Light Rain
11:35 PM 57.0 °F 51.1 °F 81% 30.03 in 10.0 mi South 16.1 mph 20.7 mph N/A Rain Light Rain
11:55 PM 55.9 °F 52.2 °F 87% 30.01 in 10.0 mi South 16.1 mph - 0.01 in Rain Rain